Retour au catalogue

COSMOS 249 DEB

ActifLEO
NORAD 19317·DEBRIS·🇷🇺 Russia

Lancé Oct 20, 1968 depuis Baikonur Cosmodrome

Loading…

Prochains Passages (prochaines 24 heures)

TLE

FraisSource: Space-Track

Époque: Sep 14, 2026, 03:05 UTC

1 19317U 68091DH  26257.12895144  .00000415  00000-0  19523-3 0  9994
2 19317  62.8490  48.1013 0713707 227.8706 125.9526 13.43008886859313

Suivez COSMOS 249 DEB en temps réel avec AllMySat

Download on the App Store